Back to catalog

TITAN 4B DEB

AliveLEO
NORAD 40528·DEBRIS·🇺🇸 United States

Launched Aug 17, 2000 from Vandenberg Space Force Base

Loading…

Next Passes (next 24 hours)

TLE

FreshSource: Space-Track

Epoch: Sep 14, 2026, 04:48 UTC

1 40528U 00047E   26257.20058112  .00000328  00000-0  39099-4 0  9998
2 40528  67.9956 333.5007 0060576 233.1718 155.5362 14.96040917625947

Track TITAN 4B DEB in real time with AllMySat

Download on the App Store